Tracking 27405 objects as of 1-Jun-2023
HD Live streaming from Space Station
objects crossing your sky now

STARLINK-4674

Track STARLINK-4674 now!
10-day predictions
STARLINK-4674 is classified as:


NORAD ID: 53591
Int'l Code: 2022-104D
Perigee: 546.0 km
Apogee: 547.7 km
Inclination: 53.2 °
Period: 95.4 minutes
Semi major axis: 6917 km
RCS: Unknown
Launch date: August 28, 2022
Source: United States (US)
Launch site: AIR FORCE EASTERN TEST RANGE (AFETR)
Your satellite tracking list
Your tracking list is empty




NASA's NSSDC Master Catalog

Two Line Element Set (TLE):
1 53591U 22104D   23151.88698767  .00001251  00000-0  96664-4 0  9997
2 53591  53.2166 110.9360 0001240  84.3588 275.7546 15.08841889 43062
Source of the keplerian elements: AFSPC